This is the latest recevied weather packets stored in our database for station/object W7JFO-3. If no packets are shown the sender has not sent any weather packets the latest 1 day(s).
| Time | Temp. | Humidity | Pressure | Rain* | Wind** | Luminosity | Snow |
|---|---|---|---|---|---|---|---|
| 1778015803 | 12.22° C | 34% | 1013.7 hPa | 0 mm | 2.68 m/s, 38° | 796 W/m² | - |
| 1778014903 | 11.67° C | 35% | 1014.1 hPa | 0 mm | 3.13 m/s, 51° | 824 W/m² | - |
| 1778014003 | 11.67° C | 37% | 1013.9 hPa | 0 mm | 2.24 m/s, 92° | 197 W/m² | - |
| 1778013103 | 11.67° C | 36% | 1014 hPa | 0 mm | 3.13 m/s, 55° | 121 W/m² | - |
| 1778012203 | 12.22° C | 35% | 1014.1 hPa | 0 mm | 3.13 m/s, 63° | 267 W/m² | - |
| 1778011303 | 12.22° C | 32% | 1013.9 hPa | 0 mm | 1.79 m/s, 126° | 939 W/m² | - |
| 1778010403 | 12.22° C | 33% | 1014.1 hPa | 0 mm | 1.34 m/s, 345° | 896 W/m² | - |
| 1778009503 | 11.67° C | 32% | 1014.4 hPa | 0 mm | 1.79 m/s, 327° | 705 W/m² | - |
| 1778008603 | 11.67° C | 33% | 1014.1 hPa | 0 mm | 1.79 m/s, 289° | 779 W/m² | - |
| 1778007703 | 11.11° C | 33% | 1014.3 hPa | 0 mm | 2.24 m/s, 349° | 881 W/m² | - |
| 1778006803 | 11.11° C | 32% | 1014.5 hPa | 0 mm | 1.34 m/s, 304° | 879 W/m² | - |
| 1778005903 | 11.67° C | 32% | 1014.3 hPa | 0 mm | 1.34 m/s, 319° | 868 W/m² | - |
| 1778005003 | 11.11° C | 35% | 1014.6 hPa | 0 mm | 1.34 m/s, 320° | 853 W/m² | - |
| 1778004103 | 10.56° C | 35% | 1014.2 hPa | 0 mm | 1.79 m/s, 355° | 833 W/m² | - |
| 1778003203 | 10.56° C | 39% | 1014.3 hPa | 0 mm | 2.24 m/s, 329° | 819 W/m² | - |
| 1778002303 | 10.56° C | 35% | 1014.6 hPa | 0 mm | 1.34 m/s, 323° | 795 W/m² | - |
| 1778001403 | 10° C | 37% | 1014.3 hPa | 0 mm | 1.79 m/s, 289° | 772 W/m² | - |
| 1778000503 | 10° C | 40% | 1014.3 hPa | 0 mm | 1.79 m/s, 349° | 761 W/m² | - |
| 1777999603 | 10° C | 42% | 1014.1 hPa | 0 mm | 1.79 m/s, 340° | 756 W/m² | - |
| 1777998703 | 9.44° C | 42% | 1014.1 hPa | 0 mm | 1.34 m/s, 296° | 724 W/m² | - |
| 1777997803 | 8.89° C | 42% | 1014.1 hPa | 0 mm | 1.34 m/s, 340° | 448 W/m² | - |
| 1777996903 | 8.89° C | 44% | 1014.3 hPa | 0 mm | 1.79 m/s, 329° | 519 W/m² | - |
| 1777996003 | 8.89° C | 43% | 1014.1 hPa | 0 mm | 1.79 m/s, 355° | 420 W/m² | - |
| 1777995104 | 10° C | 41% | 1014.3 hPa | 0 mm | 0.89 m/s, 302° | 418 W/m² | - |
| 1777994204 | 9.44° C | 40% | 1014.4 hPa | 0 mm | 0.45 m/s, 355° | 348 W/m² | - |
* Rain latest hour (hover to see other rain measurements)
** Current wind speed in m/s (hover to see current wind gust speed)